Location: Unspecified
(35.7250°N, 0.0000°E)
Time: 11:15:22
(UTC+00:00)

Vanguard 2 - Pass Details

Date: 23 June 2019
Orbit: 553 x 2938 km, 32.9° (Epoch: 16 July)

Event Time Altitude Azimuth Distance (km) Brightness Sun altitude
Rises 12:23:27 0° 277° (W) 4,111 11.3 76.9°
Reaches altitude 10° 12:25:53 10° 272° (W) 3,402 11.1 76.7°
Maximum altitude 12:34:35 52° 199° (SSW) 2,256 11.4 75.8°
Drops below altitude 10° 12:48:33 10° 129° (SE) 5,303 11.9 74.1°
Sets 12:53:26 0° 125° (SE) 6,548 12.2 73.4°
